Showing default

QIANFAN-89, 63175

Orbit data source: Space-Track

QIANFAN-89, 63175 is a Chinese payload satellite in LEO that was launched on Tue, 11 Mar 2025 UTC via a CHANG ZHENG 8 launch vehicle from the Wenchang Satellite Launch Center (WSC). Payload-class satellites include a variety of spacecraft equipped with specific instruments for various scientific and technological missions. These include communications satellites like Starlink; space stations such as the ISS; scientific satellites like the Hubble; Earth observation satellites from companies like Planet Labs, Umbra, and HawkEye 360; GPS; miniature CubeSats for education and research; and military/defense satellites.

Loading next visibility...
Identifier
63175, 2025-046S
Orbit
LEO
Country
Flag of CNCN / PRC
Related business
Manufacturer
GESIH
Mission
Operational Commercial Communications
Bus & Motor
QIANFAN, Unknown motor
Mass
267 kg wet, ~267 kg dry
Launch date (UTC)
2025-03-11 (1 year ago)
Launch vehicle
CHANG ZHENG 8
Launch site
Wenchang Satellite Launch Center (WSC)
Object type
Payload
Rocket body
Debris
Shape & HBR
Box + 1 Pan, 1.8 m
Radar Cross Section
13.200 m², Large (>1 m²)

Expand to show TLE details & history
Last TLE update: 11 hours ago

TLE from 11 hours ago
0 QIANFAN-89
1 63175U 25046S   26171.40491558  .00000119  00000-0  16519-3 0  9998
2 63175  88.9714 300.3669 0014572 299.1710  60.7983 13.51017544 73011
Epoch: 2026-06-20T09:43Z
TLE epoch observation values (Epoch: 2026-06-20T09:43:04.706Z)
Latitude
0.00003°
Longitude
-114.02272°
Altitude
1,066.187 km
Speed
7.321 km/s
True Right ascension
20h 01m 28s
True Declination
0° 00' 00"
Sunlit
Object was in full shadow at epoch
Visualization orbit readout
Latitude
Unknown
Longitude
Unknown
Altitude
Unknown
Speed
Unknown
Apparent Right ascension
Unknown
Apparent Declination
Unknown
Sunlit
N/A
Visualization observer readout
Local Sidereal Time
07:15:33
Azimuth
Unknown
Elevation
Unknown
Doppler factor
Unknown
Orbital elements
Apogee altitude
1,076.415 km
Perigee altitude
1,054.721 km
Semi-major axis
7,443.705 km
Eccentricity
0.00146
Inclination
88.9714°
RAAN
300.3669°
Arg. of periapsis
299.171°
True anomaly
60.94419°
Mean anomaly
60.7983°
Eccentric anomaly
60.87123°
Mean motion
3.37955 °/min
Orbital period
106.52 mins
BSTAR
0.00016519
Loading maneuver chart data...
Computing Atmospheric mass density...
Loading historical data...
Loading historical data...
Loading historical data...
Loading historical data...
Loading historical data...
Loading historical data...
Loading historical data...

Documentation

Showing up to 5 results
|